| time (UTC) | temp C | wind direction | speed KPH | gust KPH | rain 1hr cm | rain 24hr cm | rain mn cm | humidity % | barometer mb |
| 20260508113009 | 10 | 321 | 0.0 | 0.0 | 0.00 | 0.00 | 0.00 | 71 | 1013.2 |
| 20260508111508 | 10 | 321 | 0.0 | 0.0 | 0.00 | 0.00 | 0.00 | 71 | 1013.2 |
| 20260508110005 | 10 | 321 | 0.0 | 0.0 | 0.00 | 0.00 | 0.00 | 70 | 1013.3 |
| 20260508104505 | 10 | 321 | 0.0 | 0.0 | 0.00 | 0.00 | 0.00 | 68 | 1013.4 |
| 20260508103005 | 10 | 321 | 0.0 | 0.0 | 0.00 | 0.00 | 0.00 | 68 | 1013.5 |
| 20260508101502 | 10 | 321 | 0.0 | 0.0 | 0.00 | 0.00 | 0.00 | 68 | 1013.6 |
| 20260508100100 | 10 | 321 | 0.0 | 0.0 | 0.00 | 0.00 | 0.00 | 68 | 1013.6 |
| 20260508094600 | 10 | 321 | 0.0 | 0.0 | 0.00 | 0.00 | 0.00 | 67 | 1013.6 |
| 20260508093106 | 10 | 321 | 0.0 | 0.0 | 0.00 | 0.00 | 0.00 | 67 | 1013.7 |
| 20260508091556 | 10 | 321 | 0.0 | 0.0 | 0.00 | 0.00 | 0.00 | 67 | 1013.9 |
| 20260508090100 | 10 | 321 | 0.0 | 0.0 | 0.00 | 0.00 | 0.00 | 66 | 1014.0 |
| 20260508084553 | 10 | 321 | 0.0 | 0.0 | 0.00 | 0.00 | 0.00 | 67 | 1014.2 |
| 20260508083051 | 10 | 321 | 0.0 | 0.0 | 0.00 | 0.00 | 0.00 | 67 | 1014.2 |
| 20260508081549 | 10 | 321 | 0.0 | 0.0 | 0.00 | 0.00 | 0.00 | 68 | 1014.5 |
| 20260508080047 | 10 | 321 | 0.0 | 0.0 | 0.00 | 0.00 | 0.00 | 68 | 1014.6 |
| 20260508074547 | 10 | 321 | 0.0 | 0.0 | 0.00 | 0.00 | 0.00 | 68 | 1014.8 |
| 20260508073045 | 10 | 321 | 0.0 | 0.0 | 0.00 | 0.00 | 0.00 | 68 | 1014.8 |
| 20260508071544 | 10 | 321 | 0.0 | 0.0 | 0.00 | 0.00 | 0.00 | 65 | 1015.0 |
| 20260508070040 | 10 | 321 | 0.0 | 0.0 | 0.00 | 0.00 | 0.00 | 66 | 1014.9 |
| 20260508064542 | 11 | 321 | 0.0 | 0.0 | 0.00 | 0.00 | 0.00 | 65 | 1015.0 |
| 20260508063056 | 11 | 321 | 0.0 | 0.0 | 0.00 | 0.00 | 0.00 | 64 | 1015.1 |
| 20260508061539 | 11 | 321 | 0.0 | 0.0 | 0.00 | 0.00 | 0.00 | 65 | 1015.1 |
| 20260508060038 | 11 | 321 | 0.0 | 0.0 | 0.00 | 0.00 | 0.00 | 63 | 1015.0 |
| 20260508054538 | 11 | 321 | 0.0 | 0.0 | 0.00 | 0.00 | 0.00 | 61 | 1014.9 |
| 20260508053038 | 11 | 321 | 0.0 | 0.0 | 0.00 | 0.00 | 0.00 | 62 | 1015.0 |
| 20260508051540 | 11 | 323 | 0.0 | 0.0 | 0.00 | 0.00 | 0.00 | 62 | 1015.0 |
| 20260508050039 | 12 | 323 | 0.0 | 0.0 | 0.00 | 0.00 | 0.00 | 62 | 1015.0 |
| 20260508044536 | 12 | 323 | 0.0 | 0.0 | 0.00 | 0.00 | 0.00 | 62 | 1014.9 |
| 20260508043052 | 12 | 323 | 0.0 | 0.0 | 0.00 | 0.00 | 0.00 | 60 | 1014.8 |
| 20260508041545 | 13 | 323 | 0.0 | 0.0 | 0.00 | 0.00 | 0.00 | 59 | 1014.6 |
| 20260508040038 | 14 | 323 | 0.0 | 0.0 | 0.00 | 0.00 | 0.00 | 58 | 1014.4 |
| 20260508034534 | 15 | 323 | 0.0 | 0.0 | 0.00 | 0.00 | 0.00 | 57 | 1014.3 |
| 20260508033033 | 16 | 323 | 0.0 | 0.0 | 0.00 | 0.00 | 0.00 | 57 | 1014.1 |
| 20260508031533 | 17 | 322 | 0.0 | 0.0 | 0.00 | 0.00 | 0.00 | 57 | 1014.0 |
| 20260508030039 | 17 | 322 | 0.0 | 0.0 | 0.00 | 0.00 | 0.00 | 55 | 1013.6 |
| 20260508024532 | 18 | 322 | 0.0 | 0.0 | 0.00 | 0.00 | 0.00 | 53 | 1013.6 |
| 20260508023031 | 18 | 304 | 0.0 | 0.0 | 0.00 | 0.00 | 0.00 | 54 | 1013.3 |
| 20260508021531 | 19 | 322 | 0.0 | 0.0 | 0.00 | 0.00 | 0.00 | 55 | 1013.3 |
| 20260508020038 | 19 | 304 | 0.0 | 0.0 | 0.00 | 0.00 | 0.00 | 56 | 1013.1 |
| 20260508014530 | 20 | 310 | 0.0 | 0.0 | 0.00 | 0.00 | 0.00 | 58 | 1013.1 |
| 20260508013029 | 20 | 329 | 0.0 | 8.0 | 0.00 | 0.00 | 0.00 | 54 | 1013.1 |
| 20260508011529 | 21 | 300 | 0.0 | 9.7 | 0.00 | 0.00 | 0.00 | 53 | 1013.1 |
| 20260508010033 | 21 | 293 | 0.0 | 0.0 | 0.00 | 0.00 | 0.00 | 50 | 1013.3 |
| 20260508004528 | 22 | 307 | 0.0 | 12.9 | 0.00 | 0.00 | 0.00 | 50 | 1013.1 |
| 20260508003028 | 22 | 278 | 0.0 | 3.2 | 0.00 | 0.00 | 0.00 | 51 | 1013.1 |
| 20260508001546 | 22 | 312 | 0.0 | 6.4 | 0.00 | 0.00 | 0.00 | 48 | 1013.1 |
| 20260508000025 | 23 | 303 | 0.0 | 16.1 | 0.00 | 0.00 | 0.00 | 47 | 1013.1 |
| 20260507234525 | 23 | 322 | 0.0 | 27.4 | 0.00 | 0.00 | 0.00 | 40 | 1013.0 |
| 20260507233023 | 23 | 303 | 0.0 | 20.9 | 0.00 | 0.00 | 0.00 | 41 | 1013.0 |
| 20260507231531 | 23 | 306 | 0.0 | 14.5 | 0.00 | 0.00 | 0.00 | 44 | 1013.2 |
| 20260507230025 | 23 | 319 | 0.0 | 12.9 | 0.00 | 0.00 | 0.00 | 44 | 1013.2 |
| 20260507224526 | 24 | 327 | 0.0 | 3.2 | 0.00 | 0.00 | 0.00 | 42 | 1013.2 |
| 20260507223017 | 24 | 282 | 0.0 | 6.4 | 0.00 | 0.00 | 0.00 | 39 | 1013.5 |
| 20260507221515 | 25 | 306 | 0.0 | 17.7 | 0.00 | 0.00 | 0.00 | 38 | 1013.4 |
| 20260507220021 | 25 | 296 | 1.6 | 22.5 | 0.00 | 0.00 | 0.00 | 36 | 1013.7 |
| 20260507214510 | 25 | 312 | 0.0 | 14.5 | 0.00 | 0.00 | 0.00 | 37 | 1013.9 |
| 20260507213010 | 26 | 254 | 0.0 | 22.5 | 0.00 | 0.00 | 0.00 | 35 | 1014.1 |
| 20260507211506 | 26 | 302 | 1.6 | 17.7 | 0.00 | 0.00 | 0.00 | 34 | 1014.3 |
| 20260507210103 | 26 | 311 | 0.0 | 16.1 | 0.00 | 0.00 | 0.00 | 34 | 1014.5 |
| 20260507204502 | 26 | 315 | 0.0 | 4.8 | 0.00 | 0.00 | 0.00 | 33 | 1014.8 |
| 20260507203102 | 26 | 305 | 0.0 | 4.8 | 0.00 | 0.00 | 0.00 | 31 | 1014.8 |
| 20260507201601 | 27 | 317 | 1.6 | 19.3 | 0.00 | 0.00 | 0.00 | 29 | 1014.8 |
| 20260507200109 | 27 | 315 | 0.0 | 12.9 | 0.00 | 0.00 | 0.00 | 31 | 1014.8 |
| 20260507194556 | 27 | 293 | 0.0 | 12.9 | 0.00 | 0.00 | 0.00 | 32 | 1014.8 |
| 20260507193054 | 28 | 302 | 0.0 | 17.7 | 0.00 | 0.00 | 0.00 | 31 | 1015.0 |
| 20260507191555 | 28 | 305 | 0.0 | 0.0 | 0.00 | 0.00 | 0.00 | 27 | 1015.2 |
| 20260507190053 | 28 | 234 | 0.0 | 0.0 | 0.00 | 0.00 | 0.00 | 27 | 1015.5 |
| 20260507184550 | 28 | 101 | 0.0 | 14.5 | 0.00 | 0.00 | 0.00 | 20 | 1015.7 |
| 20260507183145 | 27 | 261 | 0.0 | 0.0 | 0.00 | 0.00 | 0.00 | 21 | 1015.7 |
| 20260507181543 | 27 | 101 | 0.0 | 6.4 | 0.00 | 0.00 | 0.00 | 23 | 1016.0 |
| 20260507180041 | 26 | 5 | 0.0 | 0.0 | 0.00 | 0.00 | 0.00 | 23 | 1016.1 |
| 20260507174546 | 27 | 82 | 0.0 | 0.0 | 0.00 | 0.00 | 0.00 | 21 | 1016.1 |
| 20260507173037 | 26 | 167 | 0.0 | 0.0 | 0.00 | 0.00 | 0.00 | 23 | 1016.0 |
| 20260507171537 | 26 | 355 | 0.0 | 1.6 | 0.00 | 0.00 | 0.00 | 24 | 1016.2 |
| 20260507170042 | 26 | 355 | 0.0 | 12.9 | 0.00 | 0.00 | 0.00 | 26 | 1016.2 |
| 20260507164532 | 25 | 130 | 0.0 | 0.0 | 0.00 | 0.00 | 0.00 | 28 | 1016.2 |
| 20260507163024 | 24 | 48 | 0.0 | 1.6 | 0.00 | 0.00 | 0.00 | 31 | 1016.3 |
| 20260507161520 | 22 | 97 | 0.0 | 12.9 | 0.00 | 0.00 | 0.00 | 34 | 1016.3 |
| 20260507160017 | 19 | 135 | 0.0 | 3.2 | 0.00 | 0.00 | 0.00 | 43 | 1016.3 |
| 20260507154512 | 16 | 105 | 0.0 | 0.0 | 0.00 | 0.00 | 0.00 | 60 | 1016.4 |
| 20260507153009 | 13 | 321 | 0.0 | 0.0 | 0.00 | 0.00 | 0.00 | 76 | 1016.4 |
| 20260507151501 | 12 | 321 | 0.0 | 0.0 | 0.00 | 0.00 | 0.00 | 80 | 1016.4 |
| 20260507150058 | 11 | 113 | 0.0 | 0.0 | 0.00 | 0.00 | 0.00 | 82 | 1016.4 |
| 20260507144554 | 10 | 113 | 0.0 | 0.0 | 0.00 | 0.00 | 0.00 | 82 | 1016.4 |
| 20260507143050 | 9 | 113 | 0.0 | 0.0 | 0.00 | 0.00 | 0.00 | 81 | 1016.4 |
| 20260507141547 | 8 | 113 | 0.0 | 0.0 | 0.00 | 0.00 | 0.00 | 79 | 1016.3 |
| 20260507140048 | 8 | 113 | 0.0 | 0.0 | 0.00 | 0.00 | 0.00 | 80 | 1016.4 |
| 20260507134544 | 7 | 112 | 0.0 | 0.0 | 0.00 | 0.00 | 0.00 | 80 | 1016.3 |
| 20260507133044 | 7 | 112 | 0.0 | 0.0 | 0.00 | 0.00 | 0.00 | 80 | 1016.2 |
| 20260507131554 | 7 | 112 | 0.0 | 0.0 | 0.00 | 0.00 | 0.00 | 79 | 1016.2 |
| 20260507130050 | 7 | 112 | 0.0 | 0.0 | 0.00 | 0.00 | 0.00 | 79 | 1016.3 |
| 20260507124547 | 7 | 112 | 0.0 | 0.0 | 0.00 | 0.03 | 0.00 | 80 | 1016.1 |
| 20260507123041 | 7 | 112 | 0.0 | 0.0 | 0.00 | 0.03 | 0.00 | 81 | 1016.0 |
| 20260507121539 | 7 | 112 | 0.0 | 0.0 | 0.00 | 0.03 | 0.00 | 81 | 1016.0 |
| 20260507120042 | 7 | 112 | 0.0 | 0.0 | 0.00 | 0.03 | 0.00 | 82 | 1016.0 |
| 20260507114537 | 7 | 112 | 0.0 | 0.0 | 0.00 | 0.03 | 0.00 | 82 | 1016.0 |